RH
24 22 18 35 33 28 36 38 41 39 39 39 37 40 32 25 26 18 42 50 56 55 36 24 24 24 27 33 30 36 60 54 39 36 41 40 46 50 49 57 53 49 53 46 53
16 24 20 19 26 23 24 26 36 36 40 35 37 33 35 21 35 19 32 46 48 48 27 28 29 25 32 28 34 46 57 37 30 34 46 44 58 60 63 68 58 57 51 58 60
19 18 23 20 21 23 23 24 30 32 33 34 26 30 29 22 35 14 30 38 25 29 26 29 22 25 28 28 34 38 44 30 31 33 38 55 61 53 64 69 66 70 72 61 58
16 18 30 20 23 19 26 24 26 32 30 29 23 22 20 18 16 13 30 29 21 22 22 23 28 28 34 33 30 43 35 32 33 32 37 57 56 56 60 64 58 61 58 60 64
18 16 15 17 18 20 21 22 22 29 24 22 18 22 19 20 14 14 24 20 20 23 26 31 35 33 36 30 34 40 37 34 33 32 54 51 76 67 69 60 54 55 56 62 60
26 30 20 13 13 15 20 23 20 26 23 18 20 22 35 18 13 16 22 22 22 25 24 25 34 33 28 30 37 36 36 38 36 36 48 70 65 61 74 61 59 63 65 69 69
20 19 20 16 13 11 17 22 23 22 22 16 19 25 24 13 14 16 21 23 25 24 27 24 25 33 27 33 31 30 40 41 39 38 52 63 78 83 74 60 66 72 67 72 77
22 20 21 19 10 12 17 19 16 19 19 15 16 26 19 10 14 18 18 23 23 25 26 24 23 31 28 27 30 34 45 55 38 42 52 46 76 78 63 61 70 68 78 82 78
21 20 18 17 11 15 16 15 15 17 15 17 19 23 15 13 14 18 18 23 21 23 26 26 24 27 33 47 49 57 60 51 46 41 51 54 80 64 50 59 73 75 87 90 88
23 22 24 15 11 14 14 16 14 15 15 13 13 14 13 14 14 18 20 22 21 23 27 28 34 43 48 54 72 60 59 52 55 44 53 64 92 61 54 62 75 82 80 95 94
32 23 22 14 12 15 15 22 35 25 16 18 17 15 15 14 14 22 24 25 20 24 24 26 43 52 41 38 39 42 48 59 47 44 52 79 79 68 57 62 85 88 88 93 95
54 32 19 15 15 16 28 48 57 58 46 15 16 15 15 18 20 21 26 24 24 23 19 30 32 32 32 39 45 49 55 57 48 40 46 69 87 79 56 67 71 97 94 95 91
70 45 39 16 20 24 28 55 59 55 62 19 17 16 15 18 28 31 31 34 24 25 29 24 28 32 34 41 48 52 51 53 56 49 55 79 92 81 59 53 50 64 86 92 96
90 79 48 31 32 37 55 59 64 67 98 42 20 21 16 18 29 26 28 33 26 29 34 23 28 39 38 38 43 60 45 46 53 72 95 65 94 88 64 60 55 59 80 94 95
96 84 53 39 35 46 61 70 80 88 100 21 22 17 15 23 24 30 29 31 36 32 29 29 29 43 43 37 38 51 43 53 59 71 79 84 89 91 69 71 71 68 74 83 95
99 76 46 48 45 63 66 79 89 99 98 27 24 21 18 20 23 31 47 40 37 37 27 24 26 37 36 36 36 37 66 69 66 80 96 83 84 96 97 90 79 74 75 79 94
94 69 58 58 68 72 82 91 100 100 31 28 30 26 26 24 26 38 72 74 68 80 75 40 26 33 37 45 43 48 78 79 66 90 90 78 86 89 80 81 88 87 85 81 95
89 70 70 59 76 83 89 98 100 88 40 38 27 23 25 30 29 31 53 77 69 88 84 64 42 37 39 42 50 53 80 84 52 100 87 65 100 90 64 68 81 78 81 76 84
88 87 86 89 88 90 96 100 98 83 51 36 29 30 30 31 48 39 48 67 69 82 72 74 40 37 39 41 38 49 80 70 94 92 98 88 85 70 55 65 73 79 82 85 85
87 96 100 100 97 94 99 98 90 54 50 40 88 33 30 35 43 69 52 66 77 61 65 89 79 29 37 39 41 52 50 72 90 100 100 83 95 96 85 82 82 85 88 87 85
88 98 99 100 99 97 100 96 70 73 71 85 76 75 31 47 55 56 64 61 64 63 65 82 79 69 50 65 64 69 83 78 80 93 100 100 91 88 93 91 96 91 89 88 89
97 99 99 100 100 100 99 79 66 82 96 97 81 36 34 37 46 64 52 65 59 59 81 73 90 82 68 59 44 56 65 81 83 77 95 94 89 87 85 86 93 94 89 85 86
98 99 99 99 100 99 84 95 96 96 98 83 49 37 33 38 53 43 65 62 58 60 80 73 88 83 52 66 59 61 61 70 86 93 99 97 79 75 81 79 86 95 92 86 87
98 98 100 100 100 90 95 97 97 97 98 69 42 33 31 29 35 54 69 57 60 74 60 65 93 57 47 45 79 70 91 76 80 98 95 92 83 71 69 77 80 90 93 89 88
100 98 88 98 99 98 98 91 93 95 98 70 45 57 50 68 73 56 62 69 66 65 61 77 78 83 61 50 65 75 91 96 94 79 84 65 90 80 76 77 77 93 93 85 88
99 98 98 98 94 97 95 97 89 97 94 94 95 87 47 68 63 65 72 72 73 75 92 88 89 70 77 67 71 81 71 84 92 81 86 88 88 63 72 82 85 96 93 92 88
99 97 94 97 99 98 96 97 95 97 98 77 89 48 46 52 57 66 65 68 71 84 92 87 81 86 75 66 79 68 75 83 82 89 80 82 68 66 67 65 88 90 93 95 93
Wind_Speed
10 11 11 11 10 9 9 7 6 7 7 8 10 11 12 11 8 12 8 10 11 15 16 17 5 5 8 1 2 2 4 2 3 3 5 7 7 5 2 4 4 6 5 23 32
9 11 12 11 11 10 9 8 7 7 8 7 9 10 12 9 5 9 14 11 11 11 16 15 8 9 0 2 3 4 3 1 2 2 3 6 4 6 5 7 9 20 15 22 25
8 10 11 12 12 11 11 9 8 8 7 8 9 9 10 7 2 3 17 12 8 11 17 22 11 2 1 2 1 3 2 2 2 3 3 1 3 5 5 5 11 19 24 23 24
7 8 10 12 12 11 11 12 9 9 8 9 10 10 10 4 0 11 16 11 9 13 15 16 7 5 3 3 1 1 2 2 3 2 3 2 4 2 9 5 9 13 18 18 19
8 7 8 11 13 13 11 12 11 8 9 9 9 9 4 1 1 15 14 8 7 14 12 7 6 4 3 3 5 3 3 5 6 4 5 4 4 2 7 13 13 13 18 20 20
9 9 9 10 13 13 14 14 11 8 8 7 8 7 1 3 2 13 9 10 5 11 10 8 3 5 3 3 1 2 5 8 6 3 4 4 2 4 6 12 16 16 17 18 19
10 11 11 11 13 14 14 13 9 8 8 6 5 4 3 2 3 11 6 4 4 5 4 6 6 5 3 4 5 4 5 8 3 4 2 6 4 8 7 12 16 17 18 19 19
10 10 12 11 12 16 13 9 7 8 9 4 3 1 2 1 0 15 10 3 3 6 8 9 7 3 3 6 3 2 4 5 5 4 1 4 2 5 10 11 16 19 19 19 20
8 10 11 14 12 13 12 7 6 5 2 5 1 2 4 2 2 15 10 4 11 8 10 11 5 0 8 4 5 7 3 8 7 1 2 0 2 7 12 13 15 18 19 18 21
6 7 10 13 14 13 11 6 5 5 3 3 6 1 3 2 5 13 8 6 4 8 7 2 4 4 5 6 1 5 5 6 6 5 3 3 5 4 9 13 17 17 20 19 20
7 6 9 11 12 12 12 4 4 1 5 1 1 1 2 8 3 11 11 8 2 3 2 3 7 3 8 5 2 4 5 7 4 3 5 6 4 1 7 12 16 17 20 20 21
9 7 3 7 8 10 7 6 4 2 5 3 3 3 1 3 3 11 16 1 3 2 5 5 2 6 8 6 6 6 4 3 11 9 5 6 2 3 7 9 16 16 21 21 23
12 9 4 5 5 6 14 9 4 6 3 2 2 2 2 4 2 6 8 4 4 3 5 5 3 6 5 4 9 5 3 3 6 9 1 9 1 4 5 11 19 17 18 19 21
16 12 5 3 2 5 6 4 3 4 2 2 2 1 1 1 1 2 5 2 3 2 2 3 3 4 3 2 5 4 1 12 11 4 1 3 3 4 13 18 23 21 22 21 23
17 11 9 8 6 3 3 4 5 3 4 3 1 1 1 3 1 2 7 2 3 1 4 1 4 5 4 4 8 8 15 13 6 1 2 2 3 5 8 19 26 23 23 22 21
19 15 11 8 6 6 6 6 3 1 5 1 2 2 2 2 1 0 4 6 2 1 1 2 2 3 2 8 2 12 5 3 1 2 3 5 4 4 6 10 21 19 22 22 21
20 18 16 11 5 10 8 1 1 3 1 1 1 2 1 1 1 2 4 6 2 3 3 3 2 2 3 5 6 11 6 4 6 5 4 1 6 2 5 7 7 16 20 21 20
22 22 13 9 10 13 7 3 4 2 2 2 1 2 3 1 0 0 4 2 4 3 3 2 3 4 6 3 3 5 4 4 3 3 5 5 2 4 1 6 8 10 13 18 21
25 15 12 11 12 14 2 2 4 3 3 4 0 4 2 1 1 1 3 3 1 1 3 3 0 2 1 2 3 5 5 4 3 3 2 1 3 3 13 12 16 19 19 21 21
21 11 3 12 14 7 2 5 4 2 3 3 7 2 3 3 2 2 2 0 2 1 1 3 3 0 1 2 6 5 2 4 3 4 5 4 2 4 14 17 17 21 19 20 20
12 3 6 13 10 2 3 4 3 3 1 5 5 5 1 2 4 2 1 1 1 1 3 3 3 4 3 4 1 4 4 3 3 3 3 3 3 5 5 5 7 13 14 15 17
6 3 8 16 2 1 3 4 3 4 2 2 0 3 1 3 1 2 3 1 4 3 2 1 4 2 2 2 1 2 2 3 4 6 2 3 4 3 5 5 2 9 11 13 13
3 3 1 0 3 3 1 2 2 4 3 5 6 2 1 4 1 3 3 1 2 0 4 3 1 2 6 5 4 1 3 3 3 3 3 3 5 4 3 4 4 4 10 12 13
4 4 1 1 1 4 5 4 5 2 2 4 2 3 2 2 2 3 2 2 1 2 4 2 2 5 5 6 4 1 1 3 4 2 2 5 5 7 10 9 8 7 8 10 11
3 4 5 5 5 4 5 8 6 6 2 0 3 5 5 4 2 4 3 2 1 3 3 3 2 2 3 2 3 5 4 4 4 4 4 4 3 6 6 5 5 4 7 14 13
4 4 1 3 7 10 9 8 10 5 8 5 4 12 7 5 4 7 6 4 4 3 2 3 2 3 4 3 2 3 6 7 5 4 9 7 9 5 5 4 5 4 5 9 14
3 1 4 6 5 6 6 6 9 11 3 2 11 5 6 3 6 7 7 7 5 6 3 2 3 2 4 3 4 5 6 8 4 4 5 3 6 2 5 6 3 5 4 6 8
Wind_Direction
6 6 9 5 3 359 346 337 333 331 330 327 323 320 324 324 328 19 30 333 326 330 338 344 356 313 288 109 38 68 60 54 8 348 285 350 348 5 238 309 20 11 309 308 315
3 356 360 3 360 358 350 336 328 324 328 337 335 328 336 329 327 38 353 337 331 339 334 324 317 327 216 51 22 71 91 64 317 343 347 354 56 332 28 11 336 326 327 319 311
356 359 351 358 358 353 350 339 324 315 315 324 337 332 336 345 330 348 347 342 346 341 327 314 326 233 46 75 55 351 133 305 358 323 354 195 39 30 17 357 346 326 326 327 324
355 354 347 357 354 348 343 340 324 313 304 306 320 328 327 323 241 344 343 338 343 335 336 7 357 22 71 21 26 72 307 32 273 255 300 120 115 65 60 317 319 323 322 324 328
337 342 346 354 349 342 337 333 319 314 315 304 316 326 352 12 294 346 350 1 343 348 30 11 38 18 12 328 335 182 294 292 272 239 119 145 93 180 30 344 329 324 338 332 325
327 336 339 353 345 342 336 329 321 295 315 319 327 323 277 254 53 352 352 356 8 6 23 20 346 294 253 267 205 229 283 275 276 187 98 110 72 73 355 327 354 342 335 333 331
326 335 338 347 345 344 338 333 330 294 303 314 334 332 275 219 39 349 343 325 9 358 333 331 329 12 318 290 213 217 303 317 263 188 66 166 85 16 291 329 337 343 340 335 334
327 333 335 340 353 346 340 338 341 315 297 317 331 335 255 165 205 15 8 112 299 291 286 298 304 260 281 295 313 280 55 9 297 172 192 80 313 34 335 335 334 343 342 338 334
322 334 339 337 356 350 340 339 351 352 317 317 345 183 301 147 340 3 349 320 315 283 270 275 284 30 349 29 26 12 311 323 313 145 133 329 55 30 2 353 341 345 343 340 334
315 332 339 341 354 355 348 316 315 342 316 271 291 342 55 312 324 347 346 314 286 324 323 170 53 57 13 42 258 281 305 285 274 316 344 79 73 50 10 9 350 348 347 343 338
291 313 340 351 360 3 8 5 6 55 38 119 261 269 38 318 289 4 345 316 245 247 253 63 64 4 297 299 193 277 279 291 307 281 338 89 93 310 2 9 360 350 348 346 341
258 275 335 347 1 14 42 65 52 335 309 212 143 121 128 12 334 359 356 45 6 60 10 36 64 307 313 42 22 322 296 328 298 321 318 139 147 229 19 6 10 354 348 346 341
253 251 271 352 29 44 76 74 26 28 259 179 76 80 300 11 89 318 5 303 60 53 33 118 336 341 335 23 358 326 161 313 281 306 292 108 292 318 339 356 3 4 352 351 346
258 259 215 163 223 111 81 80 107 87 299 176 193 16 9 18 8 302 344 257 49 79 34 109 5 3 353 353 25 298 227 322 300 5 246 109 279 10 336 350 357 357 357 350 348
253 240 184 181 158 96 141 149 129 87 291 57 141 294 269 89 41 5 19 3 84 344 83 192 6 14 9 312 316 257 311 284 263 264 347 319 64 309 357 354 343 352 351 350 348
241 203 174 161 147 147 160 155 84 80 249 115 146 161 154 75 36 97 19 29 54 15 51 157 102 79 289 298 284 320 343 13 148 118 32 255 126 350 343 319 332 346 345 346 346
201 180 181 163 168 165 150 80 77 210 38 194 179 204 144 113 107 49 58 12 74 77 357 337 69 87 3 359 350 357 31 358 10 9 226 333 56 272 293 321 304 334 339 344 349
173 178 167 170 148 152 140 71 209 173 96 315 330 267 258 132 92 297 140 68 30 27 82 110 344 21 334 97 253 338 64 121 230 318 294 347 138 235 192 338 305 344 339 348 352
174 147 144 158 161 159 123 160 233 155 136 151 21 231 242 198 144 49 60 135 136 52 143 116 162 118 67 360 49 329 39 180 96 236 324 178 16 311 356 358 351 356 2 353 353
144 125 106 156 157 149 87 235 197 112 135 153 194 274 245 184 117 91 204 121 147 15 322 220 62 261 149 46 18 98 221 36 8 33 337 327 83 263 338 348 349 356 359 350 350
130 115 149 152 144 82 196 208 144 88 145 161 198 191 326 157 157 160 223 320 85 131 69 125 85 283 46 25 42 357 6 22 122 123 158 296 262 221 255 279 320 340 349 350 346
140 126 160 154 151 209 187 160 117 145 77 107 47 32 258 154 120 128 185 54 164 148 143 165 129 97 191 330 347 341 134 106 116 280 216 165 277 232 211 260 218 324 343 348 344
104 103 184 144 178 189 104 104 127 153 178 169 185 210 92 153 106 126 100 91 93 128 173 202 351 29 352 351 355 206 146 133 120 86 233 116 267 169 258 323 1 334 334 355 344
124 131 139 241 270 156 152 183 159 75 133 200 115 104 113 125 64 151 140 202 128 84 111 84 111 156 192 207 141 70 23 116 126 119 226 228 288 323 340 346 347 344 328 351 349
178 177 170 178 217 190 162 148 145 174 216 263 158 236 160 134 80 181 133 111 104 161 55 115 161 114 272 243 158 194 173 170 157 212 166 241 247 281 280 291 303 296 327 351 360
147 151 138 139 134 150 175 202 171 150 161 190 211 190 207 162 191 184 134 185 190 90 83 335 153 97 317 139 61 264 227 192 200 243 259 271 291 212 254 276 3 3 353 348 347
179 17 112 157 142 142 194 174 184 136 190 252 180 152 149 131 91 73 81 88 118 141 147 117 116 91 282 22 7 331 228 184 198 212 170 213 229 302 331 3 355 340 9 325 331